Wind_Speed
8 10 11 11 12 13 12 12 13 14 15 16 17 17 16 16 16 17 17 17 18 19 19 19 19 18 17 16 16 16 17 17 18 18 18 18 18 19 19 19 19 19 19 19 20 19 17 15 16
8 9 9 10 11 10 10 11 12 13 15 17 17 16 16 17 18 18 18 18 20 20 19 18 17 17 18 18 18 18 19 20 20 20 20 21 21 22 22 22 21 21 22 23 22 21 19 16 15
7 8 8 9 10 9 9 10 11 12 15 17 17 16 16 18 19 19 20 20 20 18 17 17 17 18 19 20 20 20 21 22 22 22 22 23 24 25 25 25 24 24 25 25 24 21 19 17 15
5 6 8 8 8 8 9 10 11 12 14 16 16 16 17 19 20 20 20 19 19 18 18 19 19 21 22 24 24 23 24 24 24 24 24 25 26 27 27 26 26 27 27 25 23 20 18 16 15
9 10 10 10 10 9 11 13 13 15 16 17 18 19 20 20 20 20 20 20 21 21 22 23 23 23 24 26 26 26 26 26 26 26 26 27 27 28 28 27 27 26 26 24 23 21 19 17 17
11 12 13 13 13 14 15 16 17 19 20 20 21 21 21 20 19 20 21 22 23 24 25 26 26 26 26 27 28 28 28 28 27 27 28 28 28 28 28 27 27 26 24 22 22 21 20 19 19
13 13 14 15 15 16 16 17 18 19 19 20 21 21 21 22 23 23 23 24 24 25 26 27 28 28 28 27 27 28 29 29 29 28 28 28 28 27 26 26 25 24 23 23 22 22 22 21 21
16 16 17 18 18 18 19 19 21 22 23 24 25 24 24 25 26 26 27 27 28 28 29 29 29 29 29 28 27 28 28 28 27 27 27 27 26 26 25 25 25 25 25 25 25 25 25 24 23
17 18 19 19 19 20 20 21 22 23 24 25 27 27 27 27 27 28 29 30 30 29 29 28 27 28 28 27 27 26 26 26 26 26 25 25 25 25 26 27 28 28 29 29 29 29 29 29 27
17 18 20 18 19 20 21 22 23 24 25 27 28 29 28 28 28 30 30 30 28 26 24 23 24 24 25 26 26 25 25 25 26 27 27 28 29 30 31 32 33 33 33 34 34 33 33 33 33
16 18 20 18 18 19 20 21 21 20 21 25 27 27 27 27 28 28 27 27 26 25 23 22 22 23 25 28 29 29 29 31 32 33 33 34 35 36 36 37 38 38 38 38 38 38 38 38 38
15 18 18 17 16 15 16 16 16 16 18 19 20 21 21 22 22 23 24 25 26 27 27 28 28 28 30 32 34 36 37 38 39 40 41 41 42 43 43 43 43 43 43 43 43 43 43 42 42
13 16 15 14 14 11 11 11 12 15 17 16 17 19 20 21 23 25 27 28 29 30 31 33 34 35 36 37 39 41 43 44 46 47 48 48 49 49 49 48 47 46 46 46 46 46 46 46 45
11 12 13 13 12 12 13 13 17 19 18 18 20 21 22 23 25 26 28 30 30 32 33 34 35 36 37 38 40 42 44 46 48 49 51 52 53 53 52 52 51 49 48 48 48 48 48 48 47
12 13 15 16 16 16 15 13 20 21 19 19 21 22 23 25 26 28 30 31 32 34 36 37 38 39 41 41 42 43 45 46 47 48 49 51 52 53 54 53 52 51 50 49 49 49 49 49 48
16 16 17 20 19 18 16 12 20 21 20 20 21 24 27 28 30 32 34 35 36 39 41 43 44 45 46 47 47 48 50 51 52 51 51 50 50 51 52 53 53 53 52 51 50 49 49 49 48
19 19 19 22 22 19 16 10 17 23 22 21 24 27 30 33 35 37 39 40 42 45 47 48 50 51 52 53 54 54 54 54 53 53 52 51 50 49 49 50 52 53 53 52 51 49 48 48 48
23 23 22 23 23 20 18 16 18 24 25 25 27 31 35 37 40 42 44 46 48 50 51 53 54 55 56 56 57 58 57 56 53 51 51 50 49 48 48 48 49 49 50 49 48 47 46 46 45
26 25 23 22 22 22 22 23 23 25 29 31 33 36 39 42 45 47 48 50 52 53 55 58 60 60 60 59 58 58 56 53 51 50 50 49 49 48 47 47 47 47 47 46 45 44 43 43 43
26 25 24 23 26 27 27 27 28 31 34 38 42 44 46 49 51 52 53 54 56 58 59 60 62 63 62 60 59 57 54 51 50 50 51 50 49 47 45 44 43 43 43 43 42 42 42 44 46
27 26 26 26 28 30 34 35 35 41 45 48 51 53 54 55 56 57 58 59 60 60 60 61 63 62 61 58 57 56 54 52 52 52 52 51 49 45 43 43 41 41 41 40 40 41 44 46 48
24 26 28 31 34 36 39 44 47 51 54 56 58 59 61 60 60 61 62 63 62 62 62 62 63 62 61 58 55 55 54 53 53 52 50 49 48 46 44 42 41 41 41 40 41 42 44 47 49
26 30 34 37 41 45 48 52 55 57 60 62 64 64 64 63 64 64 64 62 61 61 60 61 62 62 60 58 56 54 51 50 49 47 46 46 46 45 44 42 42 40 39 41 42 44 45 48 51
32 37 41 45 49 52 55 57 60 63 65 66 67 67 67 67 67 66 64 62 60 58 58 59 60 60 60 58 56 52 49 48 46 44 44 45 45 43 42 42 41 40 39 40 41 43 46 50 53
40 45 51 54 56 58 61 65 67 68 69 69 70 69 69 68 66 65 64 61 57 55 55 56 57 57 57 56 55 52 50 49 48 45 46 47 46 43 41 41 41 40 40 40 42 44 48 50 49
48 52 56 59 62 64 67 70 69 70 69 69 68 68 69 69 68 65 61 57 54 53 53 54 54 54 54 54 54 53 53 52 51 49 48 48 45 42 40 40 40 40 40 41 43 45 47 46 45
53 57 60 63 67 69 69 71 71 71 70 68 70 72 72 71 69 64 57 53 52 51 51 52 53 53 52 53 54 56 55 54 53 49 45 41 39 38 38 40 40 41 41 42 43 44 44 44 43
57 60 61 63 67 71 72 70 72 72 72 74 75 75 73 70 66 62 56 51 49 49 50 52 53 53 52 53 54 56 56 54 52 47 42 38 36 36 37 40 41 41 42 42 42 43 43 43 42
58 59 62 66 67 69 71 69 72 73 75 77 77 76 73 69 64 59 54 50 48 48 49 52 54 54 53 54 54 53 53 53 51 46 41 38 37 37 38 40 40 40 40 40 40 41 42 42 42
59 62 63 64 66 69 74 77 73 75 76 77 77 75 71 65 58 53 49 47 45 46 48 50 52 52 52 53 51 49 51 54 52 48 42 39 38 38 39 40 40 39 38 39 39 40 41 41 42
Wind_Direction
236 235 229 227 229 233 236 241 245 245 247 250 253 258 263 268 272 276 282 286 289 291 294 295 294 291 289 286 282 279 276 274 275 277 281 283 285 291 295 296 297 299 303 308 311 309 308 305 300
237 236 235 237 240 245 244 248 254 259 262 262 262 264 266 269 271 276 282 284 286 289 290 289 286 283 282 281 279 276 274 274 275 276 278 281 284 288 292 293 294 298 303 307 308 304 301 300 299
244 245 245 247 252 256 257 258 261 265 268 268 267 265 264 267 273 278 282 283 284 283 283 282 281 281 280 278 275 274 274 276 277 278 279 281 283 286 290 292 294 298 301 304 304 301 297 296 295
247 249 251 254 259 263 266 261 257 260 266 269 270 266 265 269 276 281 283 283 284 282 281 281 282 282 281 279 277 275 274 276 278 279 281 283 284 286 288 291 293 295 296 297 297 297 296 295 296
259 259 260 264 266 266 264 265 266 264 264 269 274 276 275 275 276 280 283 284 285 285 284 282 280 280 280 280 278 277 276 277 278 280 281 283 284 285 286 287 289 290 291 291 290 292 292 293 294
264 267 271 274 275 274 274 275 274 273 274 276 277 276 275 275 275 277 280 283 286 287 287 286 283 281 280 279 278 277 277 277 278 279 280 282 282 283 284 285 286 285 285 285 286 288 290 292 292
267 268 270 272 273 274 275 277 278 280 281 281 281 280 278 278 279 280 282 283 285 286 286 285 284 284 282 279 278 277 277 278 279 279 279 280 280 280 281 282 281 280 280 281 282 283 285 287 289
264 267 267 267 269 273 275 278 281 283 284 283 283 284 284 283 284 285 286 287 288 287 286 285 285 284 283 281 279 278 279 280 280 279 278 278 278 278 278 278 278 279 280 282 283 283 283 283 284
263 266 266 268 271 274 276 278 279 280 283 284 284 284 284 286 286 286 287 288 289 288 287 286 285 284 282 281 281 279 278 277 277 277 276 275 276 277 278 278 279 280 281 281 282 283 285 285 284
261 265 267 269 271 275 278 279 280 281 282 281 280 282 284 287 288 289 290 291 291 289 287 285 283 282 282 282 281 278 274 272 273 274 274 273 274 274 276 277 278 278 279 279 280 280 282 283 282
261 264 269 271 272 276 279 281 284 286 283 279 280 283 286 287 288 289 290 292 293 292 290 286 282 281 281 282 282 281 278 276 276 275 275 274 274 273 273 274 275 277 277 278 278 278 278 278 279
262 263 268 273 276 280 284 290 295 292 283 283 286 287 287 287 286 287 288 288 287 287 286 285 282 280 279 279 281 282 281 280 279 278 278 277 276 276 275 274 274 274 274 275 275 275 275 275 276
262 264 270 273 276 282 286 290 290 285 285 289 288 288 290 290 289 290 289 287 286 285 284 284 283 282 281 281 280 280 281 281 281 281 280 279 278 276 275 274 273 272 271 271 271 271 272 272 273
262 264 269 270 274 278 282 287 287 283 292 292 291 291 290 288 287 288 287 287 288 287 286 285 284 284 284 284 283 283 282 281 280 279 279 278 278 276 275 274 272 271 269 269 269 269 270 270 270
265 266 273 277 281 282 281 282 280 286 290 292 292 290 286 284 285 285 287 288 290 289 288 286 286 286 286 285 283 282 282 281 280 279 277 277 276 275 274 273 271 270 269 268 267 267 267 267 268
274 272 272 276 275 275 276 267 271 284 290 292 290 288 287 286 287 288 289 290 291 290 290 290 290 290 291 290 289 289 288 286 283 280 277 275 274 273 273 272 271 270 268 267 265 265 265 265 265
274 271 268 270 274 277 280 265 264 281 287 290 289 289 290 291 291 290 290 290 289 289 289 289 289 289 290 290 290 289 289 288 286 283 281 279 276 272 270 269 268 268 267 266 266 265 265 264 264
274 270 269 270 272 275 278 277 274 282 288 291 291 291 293 293 292 292 292 290 289 288 287 288 288 288 289 289 289 288 288 287 284 282 281 280 277 273 269 267 265 265 265 265 265 265 264 263 263
273 270 270 274 276 278 282 287 289 290 291 294 294 294 294 294 293 293 293 292 291 289 289 288 288 289 289 289 288 287 285 284 282 280 280 278 274 270 267 265 263 262 261 261 261 261 261 261 262
276 273 274 277 283 286 287 291 296 295 294 295 295 295 295 295 295 294 294 293 292 290 289 289 288 289 288 288 286 285 282 279 278 277 277 276 270 266 263 261 261 260 259 257 257 259 261 263 264
280 280 281 284 286 293 296 296 298 296 297 298 297 297 296 297 296 295 295 294 292 291 289 290 290 289 288 286 283 281 280 279 277 276 274 271 266 262 259 258 259 259 257 257 258 260 262 264 265
286 288 293 298 300 302 302 301 300 300 301 299 298 297 297 298 297 296 296 295 293 292 291 291 290 288 286 282 279 278 279 279 278 276 272 266 262 260 259 259 259 259 259 261 262 264 266 268 269
294 298 301 303 303 304 302 301 301 302 300 299 299 299 300 300 299 299 299 299 297 295 292 290 288 285 283 280 278 277 278 279 280 278 273 267 262 258 257 257 257 258 261 263 266 268 271 273 275
300 301 302 302 301 301 301 302 303 303 301 301 302 304 304 303 303 303 303 302 300 295 290 287 284 283 281 279 278 278 278 278 281 279 273 272 269 263 257 255 255 257 261 265 268 272 275 278 279
300 301 301 301 300 302 303 303 305 304 304 304 305 305 304 304 304 304 304 302 297 290 285 281 279 278 277 277 277 278 279 279 281 278 274 274 270 262 257 256 256 258 263 267 271 275 278 280 279
299 301 304 304 302 301 302 304 306 305 304 305 305 303 303 303 304 304 302 298 292 286 280 276 274 273 273 275 276 277 278 279 281 280 277 275 267 258 255 257 259 263 267 270 274 278 280 279 276
302 304 305 305 304 302 302 303 304 305 307 307 305 303 303 303 302 301 298 294 288 282 276 272 270 269 270 273 276 277 279 280 282 284 281 271 258 252 254 257 261 265 269 273 277 280 280 278 275
305 307 308 309 308 307 306 307 307 307 307 304 303 302 301 301 300 298 295 290 283 277 273 271 271 271 270 271 273 276 279 281 284 284 278 266 255 253 255 256 261 267 272 276 279 280 278 277 274
308 309 309 309 309 309 308 306 307 307 304 303 302 301 300 300 299 297 292 286 283 281 277 276 276 276 273 272 272 276 279 280 281 281 273 262 255 254 256 257 262 269 274 277 280 280 279 276 273
310 310 310 310 310 308 307 305 307 305 304 302 300 300 300 299 297 295 289 283 279 277 276 277 279 280 277 275 275 279 276 275 277 277 269 259 254 255 256 257 262 268 274 278 280 281 281 277 272
Height
5835 5835 5837 5839 5841 5843 5844 5846 5847 5847 5847 5848 5848 5849 5849 5848 5848 5849 5847 5845 5845 5845 5844 5843 5843 5842 5842 5842 5841 5841 5841 5841 5841 5841 5840 5840 5840 5840 5839 5839 5838 5837 5837 5837 5836 5835 5834 5834 5834
5834 5835 5836 5838 5839 5841 5844 5844 5845 5846 5846 5846 5846 5847 5846 5845 5844 5843 5843 5842 5842 5841 5840 5840 5840 5839 5839 5839 5839 5838 5838 5838 5838 5837 5837 5836 5836 5836 5836 5835 5835 5834 5833 5832 5832 5831 5831 5830 5830
5833 5834 5836 5837 5838 5840 5842 5843 5843 5843 5843 5844 5844 5844 5844 5842 5840 5840 5839 5839 5838 5838 5837 5837 5837 5836 5836 5836 5835 5835 5835 5834 5834 5834 5833 5833 5833 5833 5832 5832 5831 5830 5829 5828 5827 5827 5827 5827 5826
5832 5833 5835 5836 5837 5839 5839 5840 5839 5840 5840 5840 5841 5842 5841 5840 5838 5837 5836 5835 5835 5835 5834 5833 5833 5833 5832 5832 5832 5831 5831 5830 5830 5829 5829 5829 5829 5828 5828 5827 5827 5826 5825 5825 5824 5823 5823 5823 5823
5831 5832 5834 5834 5835 5836 5836 5836 5836 5836 5836 5837 5837 5837 5837 5837 5835 5834 5833 5832 5832 5831 5830 5830 5829 5829 5828 5827 5827 5826 5826 5825 5825 5825 5824 5824 5824 5823 5823 5823 5822 5822 5821 5821 5821 5820 5819 5819 5819
5830 5831 5832 5832 5832 5833 5833 5833 5833 5832 5832 5833 5832 5832 5832 5832 5832 5831 5830 5829 5828 5827 5826 5824 5824 5824 5823 5823 5822 5821 5821 5820 5820 5820 5819 5819 5819 5818 5818 5818 5817 5817 5817 5816 5816 5815 5815 5815 5815
5829 5829 5829 5830 5829 5830 5830 5829 5829 5829 5829 5829 5828 5828 5827 5827 5827 5827 5826 5825 5824 5823 5821 5820 5818 5818 5817 5817 5817 5816 5816 5815 5815 5814 5814 5814 5813 5813 5813 5813 5813 5812 5812 5811 5811 5810 5810 5810 5810
5825 5827 5826 5826 5826 5827 5827 5826 5826 5826 5826 5825 5824 5824 5824 5823 5822 5821 5821 5820 5819 5818 5816 5814 5813 5812 5811 5811 5811 5810 5810 5809 5809 5809 5808 5808 5808 5808 5808 5808 5808 5807 5807 5806 5806 5805 5804 5804 5805
5822 5824 5823 5823 5823 5823 5823 5823 5823 5822 5822 5821 5819 5819 5819 5818 5817 5816 5815 5814 5813 5811 5809 5808 5807 5806 5804 5804 5804 5804 5804 5803 5803 5803 5803 5802 5802 5802 5802 5802 5802 5802 5801 5801 5800 5800 5799 5798 5798
5819 5819 5819 5820 5820 5819 5819 5819 5818 5818 5817 5816 5814 5814 5813 5813 5811 5810 5809 5807 5806 5804 5803 5802 5801 5799 5798 5797 5797 5798 5798 5797 5797 5796 5796 5796 5796 5796 5795 5795 5794 5794 5794 5794 5793 5793 5792 5792 5791
5816 5816 5815 5816 5816 5815 5815 5815 5814 5813 5812 5810 5810 5810 5809 5808 5807 5805 5803 5801 5800 5798 5798 5797 5796 5794 5793 5792 5791 5790 5790 5790 5789 5789 5789 5788 5788 5787 5787 5787 5786 5785 5785 5785 5785 5784 5784 5784 5783
5813 5812 5811 5812 5811 5812 5812 5811 5810 5809 5808 5806 5806 5805 5804 5803 5802 5800 5798 5796 5795 5793 5792 5790 5789 5788 5787 5785 5783 5782 5781 5781 5780 5780 5780 5779 5778 5778 5777 5777 5776 5776 5775 5775 5775 5775 5775 5775 5775
5809 5809 5809 5809 5808 5809 5809 5808 5807 5806 5804 5803 5802 5800 5799 5797 5796 5794 5792 5790 5788 5786 5784 5782 5781 5779 5778 5777 5775 5774 5772 5771 5770 5769 5768 5768 5767 5767 5766 5765 5765 5765 5764 5764 5764 5764 5764 5765 5765
5807 5807 5806 5806 5805 5805 5805 5805 5802 5800 5800 5799 5797 5796 5794 5791 5789 5787 5784 5782 5780 5778 5776 5774 5772 5771 5769 5767 5766 5764 5762 5761 5759 5758 5756 5755 5755 5754 5754 5753 5752 5752 5753 5753 5753 5753 5753 5753 5754
5805 5805 5804 5802 5802 5801 5801 5801 5797 5795 5795 5794 5792 5790 5788 5785 5783 5780 5777 5775 5773 5771 5768 5766 5764 5762 5760 5758 5756 5754 5752 5750 5748 5747 5745 5743 5742 5741 5740 5740 5739 5739 5740 5740 5741 5741 5741 5742 5743
5802 5802 5801 5799 5797 5796 5798 5798 5794 5791 5790 5789 5787 5784 5781 5779 5777 5774 5771 5768 5765 5762 5760 5757 5754 5751 5749 5746 5744 5741 5739 5738 5736 5735 5733 5731 5729 5728 5727 5727 5726 5727 5727 5728 5728 5728 5729 5730 5731
5799 5798 5797 5795 5793 5792 5792 5793 5791 5786 5785 5784 5781 5778 5775 5773 5770 5767 5763 5760 5756 5753 5750 5747 5744 5741 5738 5734 5731 5728 5726 5724 5722 5721 5719 5718 5716 5715 5714 5714 5713 5713 5714 5715 5716 5716 5717 5719 5720
5795 5793 5792 5791 5789 5788 5787 5787 5786 5782 5779 5778 5775 5771 5768 5765 5761 5758 5754 5750 5746 5742 5739 5735 5731 5728 5725 5722 5718 5714 5711 5709 5708 5706 5705 5704 5702 5702 5701 5701 5700 5700 5701 5702 5703 5704 5705 5707 5709
5789 5788 5787 5786 5783 5783 5782 5781 5780 5777 5773 5770 5767 5764 5760 5756 5751 5747 5743 5739 5734 5729 5726 5722 5717 5714 5711 5708 5704 5700 5697 5695 5694 5693 5691 5690 5689 5688 5688 5687 5688 5688 5688 5689 5690 5692 5693 5695 5697
5783 5782 5782 5781 5778 5777 5777 5775 5773 5769 5765 5762 5758 5754 5750 5745 5740 5735 5731 5726 5720 5715 5711 5707 5703 5699 5696 5693 5689 5686 5684 5682 5681 5680 5679 5678 5676 5675 5675 5675 5675 5676 5677 5678 5679 5680 5681 5683 5685
5779 5778 5777 5776 5775 5772 5770 5769 5766 5760 5756 5751 5746 5741 5737 5732 5727 5721 5716 5710 5704 5699 5695 5691 5687 5684 5681 5678 5675 5672 5670 5669 5668 5667 5665 5664 5663 5663 5663 5663 5663 5664 5665 5667 5668 5669 5670 5671 5672
5775 5773 5772 5770 5767 5766 5764 5759 5758 5750 5744 5737 5732 5727 5722 5718 5712 5706 5701 5695 5690 5685 5680 5676 5672 5669 5665 5663 5660 5658 5656 5655 5653 5652 5651 5650 5650 5650 5650 5651 5651 5652 5654 5655 5656 5657 5658 5658 5658
5770 5769 5766 5764 5760 5758 5754 5750 5748 5738 5730 5723 5717 5712 5707 5703 5697 5691 5686 5681 5676 5670 5665 5661 5656 5653 5650 5647 5646 5644 5643 5641 5639 5637 5636 5636 5635 5636 5637 5639 5640 5641 5642 5643 5644 5644 5644 5644 5643
5764 5762 5759 5755 5752 5749 5743 5738 5735 5725 5716 5709 5703 5698 5692 5687 5682 5676 5670 5665 5660 5654 5649 5644 5640 5637 5635 5632 5631 5630 5629 5628 5626 5625 5624 5623 5623 5623 5625 5627 5628 5629 5630 5631 5631 5631 5630 5629 5628
5757 5753 5748 5744 5740 5736 5730 5725 5721 5710 5701 5694 5689 5683 5676 5671 5666 5661 5655 5650 5644 5639 5633 5629 5626 5623 5621 5619 5617 5616 5615 5614 5613 5612 5611 5611 5611 5611 5613 5615 5616 5617 5618 5618 5619 5618 5617 5615 5613
5747 5742 5737 5731 5726 5723 5719 5711 5707 5696 5687 5680 5674 5667 5661 5655 5650 5644 5638 5633 5628 5624 5619 5615 5612 5610 5608 5606 5604 5603 5602 5601 5600 5599 5598 5597 5598 5599 5602 5604 5605 5606 5606 5606 5606 5605 5603 5601 5600
5737 5730 5723 5717 5711 5707 5706 5700 5693 5680 5672 5665 5657 5649 5643 5637 5631 5626 5621 5616 5612 5608 5604 5600 5598 5596 5594 5593 5591 5590 5589 5588 5587 5586 5585 5584 5584 5587 5590 5592 5594 5594 5594 5594 5593 5591 5589 5588 5587
5726 5718 5710 5701 5693 5689 5689 5686 5675 5664 5656 5648 5639 5632 5625 5619 5612 5607 5603 5599 5595 5592 5588 5585 5583 5582 5581 5579 5578 5577 5576 5574 5573 5573 5572 5572 5573 5575 5578 5581 5583 5583 5583 5582 5581 5579 5577 5576 5576
5714 5706 5696 5688 5680 5671 5667 5675 5661 5648 5637 5629 5621 5612 5604 5599 5593 5587 5584 5581 5578 5576 5573 5571 5569 5568 5567 5566 5564 5563 5562 5561 5560 5560 5560 5560 5562 5564 5567 5569 5571 5572 5571 5570 5569 5567 5566 5564 5564
5700 5691 5682 5676 5669 5658 5644 5649 5646 5632 5619 5607 5598 5591 5585 5580 5575 5570 5566 5563 5562 5560 5559 5557 5555 5554 5552 5551 5550 5550 5549 5548 5548 5548 5548 5549 5550 5553 5555 5558 5559 5560 5560 5559 5557 5555 5554 5553 5553